Wind from 350 at 14 knots

Air temperature 6.0° C
Dewpoint -12.0° C

Last reported at 2014-Apr-23 12:20 UTC.
Time now 2014-Apr-23 15:13 UTC

Location: N 62°10' E 027°52'.
View on Google Maps.

See reports from other nearby stations

Tides Stations Pressure Air Temp Water Temp Dewpoint Dewpoint depression Visibility Wind Speed Wind Dir Waves Ship positions

  
sailing weather and tide predictions

VARKAUS weather

date/time (UTC)wind fromknots sea level pressurealtimeterstation pressurevisibilityair tempwater tempwave heightnotes
2014-Apr-23 14:20 350 12 7.0
2014-Apr-23 13:50 360 11 7.0
2014-Apr-23 13:20 360 13 7.0
2014-Apr-23 12:50 340 13 7.0
2014-Apr-23 12:20 350 14 6.0
2014-Apr-23 11:50 350 12 7.0
2014-Apr-23 11:20 010 12 7.0
2014-Apr-23 10:50 360 13 6.0
2014-Apr-23 10:20 350 14 6.0
2014-Apr-23 09:50 360 14 6.0
2014-Apr-23 09:20 330 15 6.0
2014-Apr-23 08:50 360 12 6.0
2014-Apr-23 08:20 340 14 5.0
2014-Apr-23 07:50 360 12 5.0
2014-Apr-23 07:20 340 13 4.0
2014-Apr-23 06:50 340 14 4.0
2014-Apr-23 06:20 330 10 4.0
2014-Apr-23 05:50 330 9 3.0
2014-Apr-23 05:20 350 8 3.0
2014-Apr-23 04:50 350 7 2.0
2014-Apr-23 04:20 340 8 1.0
2014-Apr-23 03:20 310 5 -0.0
2014-Apr-23 02:50 310 5 -1.0
2014-Apr-23 02:20 320 6 -0.0
2014-Apr-23 01:50 320 6 -1.0
2014-Apr-23 01:20 330 7 -0.0
2014-Apr-23 00:50 330 7 -0.0
2014-Apr-23 00:20 330 6 -0.0
2014-Apr-22 23:50 320 6 -0.0
2014-Apr-22 23:20 320 5 1.0
2014-Apr-22 22:50 330 4 1.0
2014-Apr-22 22:20 330 6 2.0
2014-Apr-22 21:50 330 6 2.0
2014-Apr-22 21:20 330 7 3.0
2014-Apr-22 20:50 330 6 3.0
2014-Apr-22 20:20 320 6 4.0
2014-Apr-22 19:50 330 7 4.0
2014-Apr-22 19:20 340 5 5.0
2014-Apr-22 18:50 340 10 6.0
2014-Apr-22 18:20 340 9 7.0
2014-Apr-22 17:50 330 10 8.0
2014-Apr-22 17:20 320 12 9.0
2014-Apr-22 16:50 330 11 9.0
2014-Apr-22 16:20 320 12 10.0
2014-Apr-22 15:50 320 12 11.0
2014-Apr-22 15:20 320 13 12.0
2014-Apr-22 14:50 320 13 12.0
2014-Apr-22 14:20 310 14 13.0
2014-Apr-22 13:50 320 15 13.0
2014-Apr-22 13:20 320 13 13.0
2014-Apr-22 12:50 320 11 13.0
2014-Apr-22 12:20 330 12 14.0
2014-Apr-22 11:50 300 13 14.0
2014-Apr-22 11:20 320 10 14.0
2014-Apr-22 10:50 320 11 14.0
2014-Apr-22 10:20 320 10 13.0
2014-Apr-22 09:50 310 10 14.0
2014-Apr-22 09:20 320 14 13.0
2014-Apr-22 08:50 310 14 13.0
2014-Apr-22 08:20 310 13 12.0
2014-Apr-22 07:50 300 8 13.0
2014-Apr-22 07:20 300 7 12.0
2014-Apr-22 06:50 310 6 12.0
2014-Apr-22 06:20 330 7 11.0
2014-Apr-22 05:50 300 3 10.0
2014-Apr-22 05:20 310 3 9.0
2014-Apr-22 04:50 300 3 8.0
2014-Apr-22 04:20 320 4 7.0
2014-Apr-22 03:50 320 5 5.0
2014-Apr-22 03:20 2.0
2014-Apr-22 02:20 2.0
2014-Apr-22 01:50 2.0
2014-Apr-22 01:20 3.0
2014-Apr-22 00:50 2.0
2014-Apr-22 00:20 3.0
2014-Apr-21 23:50 3.0
2014-Apr-21 23:20 3.0
2014-Apr-21 22:50 3.0
2014-Apr-21 22:20 3.0
2014-Apr-21 21:50 3.0
2014-Apr-21 21:20 4.0
2014-Apr-21 20:50 4.0
2014-Apr-21 20:20 6.0
2014-Apr-21 19:50 6.0
2014-Apr-21 19:20 6.0
2014-Apr-21 18:50 8.0
2014-Apr-21 18:20 9.0
2014-Apr-21 17:50 10.0
2014-Apr-21 17:20 13.0
2014-Apr-21 16:50 100 4 14.0
2014-Apr-21 16:20 100 5 14.0
2014-Apr-21 15:50 080 5 15.0
2014-Apr-21 15:20 120 4 15.0